Flag for India Weather past 2 weeks in Ganganagar, Rajasthan, India

Now
95 °F

Partly sunny.


Feels Like: 116 °F
Forecast: 85 / 96 °F
Wind: 6 mph from South

Location: Lahore Airport

Current Time: Aug 5, 2015 at 3:07:40 PM

Latest Report: Aug 5, 2015 at 2:30 PM


Visibility: 3 mi

Pressure: 29.50 "Hg

Humidity: 63%

Dew point: 81 °F

Location of GanganagarLocation

Historic Weather in Ganganagar — Graph

°F

Ganganagar temperature yesterday

Maximum temperature yesterday: 95 °F (at 3:25 PM)
Minimum temperature yesterday: 79 °F (at 4:25 AM)
Average temperature yesterday: 87 °F

Past Weeks' High & Low Weather Summary

 TemperatureHumidityPressure
High95 °F (Jul 25, 2:25 PM)100% (Jul 26, 5:55 AM)29.68 "Hg (Jul 26, 5:55 AM)
Low75 °F (Jul 26, 5:55 AM)47% (Aug 4, 3:25 PM)29.45 "Hg (Jul 29, 4:25 PM)
Average85 °F79%29.57 "Hg
* Reported Jul 21 1:55 PM — Aug 5 1:55 PM, Ganganagar, Weather by CustomWeather, © 2015

Note: Actual official high and low records may vary slightly from our data, if they occured in-between our weather recording intervals... More about our weather records

Advertising

Ganganagar weather history for previous 24 hours

 ConditionsComfort  
Time TempWeatherWind HumidityBarometerVisibility
1:55 PM
Wed, Aug 5
93 °FPartly sunny.7 mph67%29.53 "Hg3 mi
1:25 PM93 °FPartly sunny.5 mph67%29.53 "Hg3 mi
12:55 PM93 °FPartly sunny.8 mph67%29.56 "Hg3 mi
12:25 PM93 °FScattered clouds.9 mph67%29.56 "Hg3 mi
11:55 AM91 °FPartly sunny.10 mph75%29.56 "Hg3 mi
11:25 AM91 °FPartly sunny.10 mph75%29.56 "Hg3 mi
10:25 AM91 °FPartly sunny.6 mph71%29.56 "Hg3 mi
9:55 AM90 °FPartly sunny.6 mph75%29.56 "Hg4 mi
9:25 AM90 °FScattered clouds.6 mph75%29.56 "Hg2 mi
8:55 AM88 °FScattered clouds.6 mph79%29.56 "Hg2 mi
8:25 AM88 °FScattered clouds.5 mph79%29.56 "Hg2 mi
8:00 AM84 °FFog.3 mph84%29.56 "Hg1 mi
7:25 AM82 °FFog.3 mph89%29.53 "Hg1 mi
6:55 AM81 °FFog.3 mph94%29.53 "Hg1 mi
6:25 AM81 °FFog.3 mph94%29.53 "Hg1 mi
5:25 AM82 °FPassing clouds.3 mph89%29.50 "Hg2 mi
4:55 AM82 °FPassing clouds.No wind89%29.50 "Hg2 mi
4:25 AM82 °FPassing clouds.No wind89%29.50 "Hg2 mi
3:55 AM82 °FPassing clouds.3 mph89%29.50 "Hg2 mi
3:25 AM84 °FPassing clouds.3 mph84%29.50 "Hg2 mi
2:55 AM84 °FPassing clouds.No wind84%29.50 "Hg2 mi
2:25 AM84 °FPassing clouds.6 mph84%29.50 "Hg2 mi
1:55 AM84 °FPassing clouds.5 mph84%29.53 "Hg2 mi
1:25 AM84 °FPassing clouds.3 mph84%29.53 "Hg2 mi
12:55 AM84 °FPassing clouds.3 mph89%29.53 "Hg3 mi
12:25 AM86 °FPassing clouds.No wind84%29.53 "Hg3 mi
11:55 PM
Tue, Aug 4
86 °FPassing clouds.No wind84%29.53 "Hg3 mi
11:25 PM86 °FPassing clouds.No wind84%29.53 "Hg3 mi
10:55 PM86 °FPassing clouds.3 mph84%29.53 "Hg3 mi
10:25 PM88 °FPassing clouds.3 mph79%29.53 "Hg3 mi
9:55 PM88 °FPassing clouds.5 mph79%29.53 "Hg3 mi
9:25 PM88 °FPassing clouds.3 mph79%29.53 "Hg3 mi
8:55 PM90 °FPassing clouds.5 mph75%29.53 "Hg3 mi
8:25 PM90 °FPassing clouds.5 mph75%29.50 "Hg3 mi
7:55 PM90 °FPassing clouds.6 mph71%29.50 "Hg3 mi
7:25 PM91 °FScattered clouds.5 mph67%29.50 "Hg3 mi
6:55 PM93 °FScattered clouds.6 mph67%29.53 "Hg3 mi
6:30 PM93 °FScattered clouds.5 mph67%29.50 "Hg3 mi
5:55 PM93 °FScattered clouds.3 mph67%29.50 "Hg3 mi
5:25 PM93 °FScattered clouds.6 mph67%29.50 "Hg3 mi
4:55 PM95 °FPartly sunny.6 mph60%29.50 "Hg3 mi
4:25 PM95 °FPartly sunny.6 mph60%29.50 "Hg3 mi
3:55 PM95 °FScattered clouds.6 mph63%29.53 "Hg3 mi
3:25 PM95 °FScattered clouds.6 mph47%29.53 "Hg3 mi
Weather by CustomWeather, © 2015

See weather overviewHow to use our weather pages